Wind_Speed
14 15 13 14 16 32 32 36 34 32 38 40 37 36 37 39 43 42 38 33 35 36
16 16 15 16 17 27 36 41 34 40 36 32 36 40 36 40 42 40 36 33 33 31
15 17 15 15 17 20 25 35 44 46 45 43 43 48 49 46 42 41 41 42 39 38
13 14 16 17 17 17 23 31 41 43 44 44 45 46 51 52 49 45 40 43 41 43
15 13 12 14 18 19 19 23 33 41 41 44 45 46 48 49 48 49 47 46 42 43
17 16 15 15 15 17 17 20 18 24 33 44 46 44 47 50 46 38 33 36 35 40
20 18 17 16 17 16 19 18 21 20 21 35 40 39 42 39 35 33 30 29 30 31
20 20 19 18 17 17 18 19 21 22 23 28 35 38 35 32 31 28 27 28 28 32
21 20 22 22 21 21 20 20 21 24 24 25 30 31 31 31 29 29 29 31 33 35
18 22 22 21 22 23 23 22 23 23 25 27 27 26 25 25 25 30 34 33 35 36
15 22 24 24 23 24 24 25 24 23 24 25 26 26 26 27 28 29 34 36 35 35
26 25 26 26 24 23 25 25 24 24 24 25 26 26 27 26 29 31 33 33 32 30
33 29 26 27 27 22 21 25 25 23 25 28 29 29 29 28 29 31 31 30 27 26
27 28 26 25 29 26 23 21 21 24 27 28 29 31 32 32 32 32 31 29 26 22
Wind_Direction
207 219 220 221 218 203 197 189 186 193 193 194 194 195 198 198 204 211 215 217 218 218
194 203 202 214 213 209 200 198 193 194 197 197 196 195 204 206 209 211 211 215 214 224
189 189 196 202 209 212 205 190 191 196 201 203 203 202 206 211 215 223 219 220 232 221
210 192 193 194 202 209 210 209 211 208 207 208 206 207 204 210 215 222 220 225 219 223
225 216 210 195 195 200 211 215 218 210 207 210 206 209 212 214 214 221 226 227 228 231
230 230 226 224 211 205 204 210 211 220 223 216 215 215 222 227 220 223 226 231 229 228
234 233 234 238 238 225 216 217 210 220 230 226 209 215 219 220 219 228 230 237 240 237
237 227 232 237 239 242 239 232 226 228 224 223 217 217 213 218 226 230 236 239 240 239
244 242 227 228 234 239 243 242 238 234 231 223 221 227 233 236 236 236 235 236 242 248
248 247 246 238 227 232 235 241 243 240 235 233 232 234 238 240 239 236 236 242 252 254
265 252 247 244 240 232 232 236 237 242 242 240 239 238 237 237 239 239 241 248 251 253
282 273 256 243 240 239 234 234 241 242 242 244 243 240 238 237 238 239 241 242 243 243
242 258 255 254 245 236 236 233 240 246 245 245 246 247 243 238 238 240 238 235 229 226
238 242 250 246 245 240 227 221 230 239 241 244 247 246 247 245 244 240 233 213 200 186
Height
1418 1421 1422 1425 1428 1429 1431 1435 1442 1451 1459 1465 1476 1483 1491 1497 1504 1509 1515 1519 1525 1529
1415 1419 1421 1424 1427 1430 1433 1436 1443 1451 1458 1465 1473 1482 1489 1495 1500 1506 1512 1516 1521 1524
1414 1417 1420 1423 1427 1430 1434 1438 1442 1447 1453 1460 1467 1474 1484 1491 1496 1502 1508 1512 1516 1520
1419 1420 1421 1422 1426 1430 1434 1437 1441 1445 1450 1457 1463 1470 1477 1482 1491 1496 1501 1506 1510 1515
1418 1420 1423 1425 1426 1429 1433 1438 1441 1443 1449 1453 1459 1466 1472 1476 1483 1489 1494 1499 1504 1508
1415 1419 1422 1425 1428 1431 1433 1436 1439 1444 1447 1450 1455 1462 1468 1473 1480 1484 1489 1493 1497 1502
1412 1415 1419 1422 1426 1429 1433 1436 1439 1442 1445 1449 1453 1458 1463 1470 1476 1482 1486 1490 1493 1496
1406 1412 1416 1419 1422 1426 1430 1434 1437 1440 1443 1446 1450 1455 1460 1466 1472 1477 1481 1484 1487 1490
1403 1406 1411 1415 1419 1422 1426 1430 1434 1438 1442 1445 1449 1454 1459 1463 1467 1471 1475 1478 1481 1483
1399 1402 1404 1408 1413 1417 1421 1426 1429 1433 1438 1442 1446 1451 1455 1459 1462 1466 1468 1471 1473 1475
1395 1397 1400 1403 1406 1411 1416 1420 1424 1428 1433 1437 1442 1447 1451 1454 1457 1460 1462 1464 1465 1466
1389 1391 1393 1397 1400 1403 1409 1414 1418 1423 1427 1431 1435 1440 1444 1448 1450 1452 1453 1454 1456 1458
1389 1387 1389 1391 1394 1397 1403 1408 1413 1418 1421 1425 1428 1432 1436 1440 1442 1445 1446 1449 1450 1452
1380 1381 1384 1387 1388 1392 1396 1399 1405 1410 1414 1419 1422 1424 1429 1433 1436 1438 1440 1441 1443 1448